Hourly Data Report for June 30, 2022

MIRAMICHI RCS
NEW BRUNSWICK
Current Station Operator: ECCC - MSC

47°00'34.000" N
65°27'54.000" W
33.00 m
8100989
71744
ACQ

Download Data

Hourly Data (June 2022)
Hourly Data Report for June 30, 2022
TIME
LST
Temp Definition
°C
Dew Point Definition
°C
Rel Hum Definition
%
Precip. Amount Definition
mm

Wind Dir Definition
10's deg

Wind Spd Definition
km/h
Visibility Definition
km
Stn Press Definition
kPa
Hmdx Definition


Wind Chill Definition


Weather Definition


00:00 17.1 10.4 65 0.0 23 6   101.39     LegendNANA
01:00 16.2 10.3 68 0.0 23 4   101.35     LegendNANA
02:00 15.7 10.7 72 0.0 26 8   101.35     LegendNANA
03:00 14.7 10.6 76 0.0 19 5   101.27     LegendNANA
04:00 13.6 10.9 83 0.0 28 9   101.27     LegendNANA
05:00 13.9 11.1 83 0.0 28 3   101.26     LegendNANA
06:00 15.8 12.0 78 0.0 29 2   101.31     LegendNANA
07:00 17.5 12.9 74 0.0 34 5   101.28     LegendNANA
08:00 19.6 13.4 67 0.0 33 9   101.31     LegendNANA
09:00 20.5 14.0 66 0.0 2 13   101.28     LegendNANA
10:00 19.9 13.6 67 0.0 34 8   101.32     LegendNANA
11:00 19.3 15.3 78 0.0 7 9   101.35     LegendNANA
12:00 18.0 14.8 81 0.0 9 9   101.37     LegendNANA
13:00 19.3 15.9 80 0.0 6 4   101.36     LegendNANA
14:00 20.7 15.3 71 0.0 2 7   101.34 25   LegendNANA
15:00 21.9 14.4 62 0.0 6 6   101.23 26   LegendNANA
16:00 22.7 15.0 62 0.0 4 4   101.16 27   LegendNANA
17:00 20.9 15.3 70 0.0 4 8   101.18 25   LegendNANA
18:00 19.5 14.1 71 0.0 6 16   101.21     LegendNANA
19:00 18.4 14.0 75 0.0 6 13   101.26     LegendNANA
20:00 17.0 13.9 82 0.0 4 5   101.33     LegendNANA
21:00 15.7 13.4 86 0.0 9 6   101.32     LegendNANA
22:00 15.1 13.2 89 0.0 8 3   101.32     LegendNANA
23:00 13.9 12.3 90 0.0   0   101.28     LegendNANA

Notes on Data Quality.

Legend

  • E = Estimated
  • M = Missing
  • NA = Not Available*
  • [empty] = Indicates an unobserved value
Date modified: